This is the latest recevied weather packets stored in our database for station/object KD8OZS. If no packets are shown the sender has not sent any weather packets the latest 10 day(s).
| Time | Temp. | Humidity | Pressure | Rain* | Wind** | Luminosity | Snow |
|---|---|---|---|---|---|---|---|
| 1778028525 | 13.89° C | 97% | 999.8 hPa | 1.78 mm | - | 0 W/m² | - |
| 1778028224 | 13.89° C | 97% | 999.7 hPa | 3.05 mm | - | 0 W/m² | - |
| 1778027920 | 13.89° C | 97% | 999.9 hPa | 3.05 mm | - | 0 W/m² | - |
| 1778027616 | 13.89° C | 97% | 999.9 hPa | 0 mm | - | 0 W/m² | - |
| 1778027312 | 13.89° C | 97% | 1000 hPa | 1.27 mm | - | 0 W/m² | - |
| 1778027009 | 13.89° C | 97% | 999.7 hPa | 3.05 mm | - | 0 W/m² | - |
| 1778026704 | 14.44° C | 97% | 999.6 hPa | 3.05 mm | - | 0 W/m² | - |
| 1778026402 | 14.44° C | 97% | 999.8 hPa | 6.1 mm | - | 0 W/m² | - |
| 1778026099 | 14.44° C | 97% | 999.9 hPa | 6.6 mm | - | 0 W/m² | - |
| 1778025797 | 14.44° C | 97% | 999.8 hPa | 3.05 mm | - | 0 W/m² | - |
| 1778025493 | 14.44° C | 97% | 1000.1 hPa | 3.05 mm | - | 2 W/m² | - |
| 1778025191 | 14.44° C | 97% | 999.8 hPa | 3.05 mm | - | 4 W/m² | - |
| 1778024887 | 14.44° C | 97% | 999.9 hPa | 3.05 mm | - | 3 W/m² | - |
| 1778024585 | 14.44° C | 97% | 1000 hPa | 1.27 mm | - | 2 W/m² | - |
| 1778024282 | 14.44° C | 97% | 1000 hPa | 1.27 mm | - | 8 W/m² | - |
| 1778023980 | 14.44° C | 96% | 1000.1 hPa | 0 mm | - | 10 W/m² | - |
| 1778023676 | 14.44° C | 96% | 999.9 hPa | 0 mm | - | 10 W/m² | - |
| 1778023374 | 14.44° C | 96% | 1000.1 hPa | 1.78 mm | - | 10 W/m² | - |
| 1778023070 | 14.44° C | 96% | 1000.1 hPa | 1.78 mm | - | 8 W/m² | - |
| 1778022769 | 14.44° C | 96% | 1000.2 hPa | 0 mm | - | 19 W/m² | - |
| 1778022467 | 14.44° C | 96% | 1000.1 hPa | 1.27 mm | - | 21 W/m² | - |
| 1778022163 | 14.44° C | 96% | 1000.1 hPa | 1.27 mm | - | 16 W/m² | - |
| 1778021860 | 14.44° C | 96% | 1000.1 hPa | 1.78 mm | - | 13 W/m² | - |
| 1778021557 | 14.44° C | 96% | 1000.3 hPa | 1.78 mm | - | 12 W/m² | - |
| 1778021252 | 14.44° C | 96% | 1000.1 hPa | 4.83 mm | - | 16 W/m² | - |
* Rain latest hour (hover to see other rain measurements)
** Current wind speed in m/s (hover to see current wind gust speed)